Location: Bessat
(45.8735°N, 1.9924°E)
Time: 04:38:26
(UTC+00:00)

Cosmos 1536 - Pass Details

Date: 11 May 2021
Orbit: 539 x 558 km, 82.5° (Epoch: 14 June)

Event Time Altitude Azimuth Distance (km) Brightness Sun altitude
Rises 22:39:52 0° 340° (NNW) 2,744 7.8 -24.1°
Reaches altitude 10° 22:42:17 10° 328° (NNW) 1,841 6.5 -24.3°
Maximum altitude 22:45:41 26° 271° (W) 1,094 4.4 -24.4°
Enters shadow 22:45:57 26° 264° (W) 1,099 4.4 -24.5°
